Time,TemperatureF,DewpointF,PressureIn,WindDirection,WindDirectionDegrees,WindSpeedMPH,WindSpeedGustMPH,Humidity,HourlyPrecipIn,Conditions,Clouds,dailyrainin,SolarRadiationWatts/m^2,SoftwareType,DateUTC
2013-01-07 00:00:00,30.9,26.6,30.20,SW,220,0.0,1.0,84,0.00,,,0.00,0.00,VWS V14.01,2013-01-07 05:00:00,
2013-01-07 00:05:00,30.9,26.6,30.20,SW,230,0.0,3.0,84,0.00,,,0.00,0.00,VWS V14.01,2013-01-07 05:05:00,
2013-01-07 00:10:00,30.9,26.9,30.20,SW,215,2.0,2.0,85,0.00,,,0.00,0.00,VWS V14.01,2013-01-07 05:10:00,
2013-01-07 00:15:00,30.9,26.9,30.20,SSW,212,0.0,2.0,85,0.00,,,0.00,0.00,VWS V14.01,2013-01-07 05:15:00,
2013-01-07 00:20:00,30.9,26.9,30.20,SSW,208,0.0,0.0,85,0.00,,,0.00,0.00,VWS V14.01,2013-01-07 05:20:00,
2013-01-07 00:25:00,30.9,26.9,30.20,West,263,0.0,0.0,85,0.00,,,0.00,0.00,VWS V14.01,2013-01-07 05:25:00,
2013-01-07 00:30:00,30.9,27.2,30.21,NW,316,0.0,0.0,86,0.00,,,0.00,0.00,VWS V14.01,2013-01-07 05:30:00,
2013-01-07 00:35:00,30.9,27.2,30.21,NW,318,0.0,0.0,86,0.00,,,0.00,0.00,VWS V14.01,2013-01-07 05:35:00,
2013-01-07 00:40:00,30.7,27.0,30.21,NW,315,0.0,0.0,86,0.00,,,0.00,0.00,VWS V14.01,2013-01-07 05:40:00,
2013-01-07 00:45:00,30.7,27.0,30.22,NW,311,0.0,2.0,86,0.00,,,0.00,0.00,VWS V14.01,2013-01-07 05:45:00,
2013-01-07 00:50:00,30.7,27.3,30.22,SW,222,0.0,0.0,87,0.00,,,0.00,0.00,VWS V14.01,2013-01-07 05:50:00,
2013-01-07 00:55:00,30.7,27.3,30.22,SW,224,0.0,0.0,87,0.00,,,0.00,0.00,VWS V14.01,2013-01-07 05:55:00,
2013-01-07 01:00:00,30.7,27.3,30.22,SW,224,0.0,0.0,87,0.00,,,0.00,0.00,VWS V14.01,2013-01-07 06:00:00,
2013-01-07 01:05:00,30.7,27.3,30.22,SW,227,0.0,0.0,87,0.00,,,0.00,0.00,VWS V14.01,2013-01-07 06:05:00,
2013-01-07 01:10:00,30.7,27.3,30.22,SSW,196,0.0,0.0,87,0.00,,,0.00,0.00,VWS V14.01,2013-01-07 06:10:00,
2013-01-07 01:15:00,30.7,27.3,30.23,SW,215,1.0,4.0,87,0.00,,,0.00,0.00,VWS V14.01,2013-01-07 06:15:00,
2013-01-07 01:20:00,30.7,27.3,30.23,WNW,299,4.0,4.0,87,0.00,,,0.00,0.00,VWS V14.01,2013-01-07 06:20:00,
2013-01-07 01:25:00,30.7,27.3,30.23,SW,233,0.0,4.0,87,0.00,,,0.00,0.00,VWS V14.01,2013-01-07 06:25:00,
2013-01-07 01:30:00,30.7,27.3,30.23,SSW,213,0.0,0.0,87,0.00,,,0.00,0.00,VWS V14.01,2013-01-07 06:30:00,
2013-01-07 01:35:00,30.7,27.3,30.23,SW,219,0.0,0.0,87,0.00,,,0.00,0.00,VWS V14.01,2013-01-07 06:35:00,
2013-01-07 01:40:00,30.7,27.3,30.23,WNW,302,0.0,0.0,87,0.00,,,0.00,0.00,VWS V14.01,2013-01-07 06:40:00,
2013-01-07 01:45:00,30.9,27.5,30.24,WSW,257,0.0,3.0,87,0.00,,,0.00,0.00,VWS V14.01,2013-01-07 06:45:00,
2013-01-07 01:50:00,30.9,27.5,30.24,West,265,0.0,0.0,87,0.00,,,0.00,0.00,VWS V14.01,2013-01-07 06:50:00,
2013-01-07 01:55:00,30.9,27.5,30.24,West,263,0.0,0.0,87,0.00,,,0.00,0.00,VWS V14.01,2013-01-07 06:55:00,
2013-01-07 02:00:00,31.0,27.6,30.25,South,175,0.0,0.0,87,0.00,,,0.00,0.00,VWS V14.01,2013-01-07 07:00:00,
2013-01-07 02:05:00,31.0,27.6,30.25,SSW,208,0.0,1.0,87,0.00,,,0.00,0.00,VWS V14.01,2013-01-07 07:05:00,
2013-01-07 02:10:00,31.0,27.6,30.25,SSW,206,0.0,0.0,87,0.00,,,0.00,0.00,VWS V14.01,2013-01-07 07:10:00,
2013-01-07 02:16:00,31.0,27.6,30.26,WSW,256,0.0,0.0,87,0.00,,,0.00,0.00,VWS V14.01,2013-01-07 07:16:00,
2013-01-07 02:21:00,31.0,27.6,30.26,SW,224,0.0,0.0,87,0.00,,,0.00,0.00,VWS V14.01,2013-01-07 07:21:00,
2013-01-07 02:26:00,31.0,27.6,30.26,SW,226,0.0,0.0,87,0.00,,,0.00,0.00,VWS V14.01,2013-01-07 07:26:00,
2013-01-07 02:31:00,31.0,27.6,30.26,WSW,239,0.0,0.0,87,0.00,,,0.00,0.00,VWS V14.01,2013-01-07 07:31:00,
2013-01-07 02:36:00,31.2,27.8,30.26,WSW,239,0.0,0.0,87,0.00,,,0.00,0.00,VWS V14.01,2013-01-07 07:36:00,
2013-01-07 02:41:00,31.2,27.8,30.26,WSW,239,0.0,0.0,87,0.00,,,0.00,0.00,VWS V14.01,2013-01-07 07:41:00,
2013-01-07 02:46:00,31.2,27.8,30.26,WSW,240,0.0,0.0,87,0.00,,,0.00,0.00,VWS V14.01,2013-01-07 07:46:00,
2013-01-07 02:51:00,31.2,27.8,30.26,WSW,240,0.0,0.0,87,0.00,,,0.00,0.00,VWS V14.01,2013-01-07 07:51:00,
2013-01-07 02:56:00,31.2,27.8,30.26,WSW,240,0.0,3.0,87,0.00,,,0.00,0.00,VWS V14.01,2013-01-07 07:56:00,
2013-01-07 03:01:00,31.2,27.8,30.26,SW,220,0.0,0.0,87,0.00,,,0.00,0.00,VWS V14.01,2013-01-07 08:01:00,
2013-01-07 03:06:00,31.2,27.8,30.26,SW,230,1.0,2.0,87,0.00,,,0.00,0.00,VWS V14.01,2013-01-07 08:06:00,
2013-01-07 03:11:00,31.2,27.8,30.26,SW,230,1.0,1.0,87,0.00,,,0.00,0.00,VWS V14.01,2013-01-07 08:11:00,
2013-01-07 03:16:00,31.2,27.8,30.27,SW,232,0.0,1.0,87,0.00,,,0.00,0.00,VWS V14.01,2013-01-07 08:16:00,
2013-01-07 03:21:00,31.2,27.8,30.27,SW,233,0.0,0.0,87,0.00,,,0.00,0.00,VWS V14.01,2013-01-07 08:21:00,
2013-01-07 03:26:00,31.3,27.9,30.27,SW,233,0.0,1.0,87,0.00,,,0.00,0.00,VWS V14.01,2013-01-07 08:26:00,
2013-01-07 03:31:00,31.3,27.9,30.28,SW,233,0.0,0.0,87,0.00,,,0.00,0.00,VWS V14.01,2013-01-07 08:31:00,
2013-01-07 03:36:00,31.3,27.9,30.28,SW,233,0.0,1.0,87,0.00,,,0.00,0.00,VWS V14.01,2013-01-07 08:36:00,
2013-01-07 03:41:00,31.3,27.9,30.28,WSW,240,0.0,0.0,87,0.00,,,0.00,0.00,VWS V14.01,2013-01-07 08:41:00,
2013-01-07 03:46:00,31.5,28.1,30.28,SW,220,0.0,1.0,87,0.00,,,0.00,0.00,VWS V14.01,2013-01-07 08:46:00,
2013-01-07 03:51:00,31.5,28.1,30.28,SW,220,0.0,0.0,87,0.00,,,0.00,0.00,VWS V14.01,2013-01-07 08:51:00,
2013-01-07 03:56:00,31.5,28.1,30.28,WSW,257,0.0,1.0,87,0.00,,,0.00,0.00,VWS V14.01,2013-01-07 08:56:00,
2013-01-07 04:01:00,31.5,28.1,30.28,WSW,257,0.0,1.0,87,0.00,,,0.00,0.00,VWS V14.01,2013-01-07 09:01:00,
2013-01-07 04:06:00,31.5,28.1,30.28,SW,234,0.0,2.0,87,0.00,,,0.00,0.00,VWS V14.01,2013-01-07 09:06:00,
2013-01-07 04:11:00,31.5,28.1,30.28,SW,236,0.0,0.0,87,0.00,,,0.00,0.00,VWS V14.01,2013-01-07 09:11:00,
2013-01-07 04:16:00,31.5,28.1,30.28,SW,236,0.0,0.0,87,0.00,,,0.00,0.00,VWS V14.01,2013-01-07 09:16:00,
2013-01-07 04:21:00,31.6,28.2,30.28,SW,236,2.0,2.0,87,0.00,,,0.00,0.00,VWS V14.01,2013-01-07 09:21:00,
2013-01-07 04:26:00,31.6,28.2,30.28,WSW,247,0.0,2.0,87,0.00,,,0.00,0.00,VWS V14.01,2013-01-07 09:26:00,
2013-01-07 04:31:00,31.6,28.5,30.29,WSW,247,0.0,0.0,88,0.00,,,0.00,0.00,VWS V14.01,2013-01-07 09:31:00,
2013-01-07 04:36:00,31.6,28.5,30.29,WSW,247,0.0,0.0,88,0.00,,,0.00,0.00,VWS V14.01,2013-01-07 09:36:00,
2013-01-07 04:41:00,31.6,28.5,30.29,WSW,247,0.0,0.0,88,0.00,,,0.00,0.00,VWS V14.01,2013-01-07 09:41:00,
2013-01-07 04:46:00,31.5,28.4,30.28,WSW,247,0.0,0.0,88,0.00,,,0.00,0.00,VWS V14.01,2013-01-07 09:46:00,
2013-01-07 04:51:00,31.5,28.4,30.28,WSW,247,0.0,0.0,88,0.00,,,0.00,0.00,VWS V14.01,2013-01-07 09:51:00,
2013-01-07 04:56:00,31.5,28.4,30.28,WSW,247,0.0,0.0,88,0.00,,,0.00,0.00,VWS V14.01,2013-01-07 09:56:00,
2013-01-07 05:01:00,31.5,28.4,30.28,WSW,247,0.0,0.0,88,0.00,,,0.00,0.00,VWS V14.01,2013-01-07 10:01:00,
2013-01-07 05:06:00,31.3,28.2,30.28,WSW,247,0.0,0.0,88,0.00,,,0.00,0.00,VWS V14.01,2013-01-07 10:06:00,
2013-01-07 05:11:00,31.3,28.2,30.28,WSW,247,0.0,0.0,88,0.00,,,0.00,0.00,VWS V14.01,2013-01-07 10:11:00,
2013-01-07 05:16:00,31.3,28.2,30.29,WSW,247,0.0,0.0,88,0.00,,,0.00,0.00,VWS V14.01,2013-01-07 10:16:00,
2013-01-07 05:21:00,31.3,28.2,30.29,WSW,247,0.0,0.0,88,0.00,,,0.00,0.00,VWS V14.01,2013-01-07 10:21:00,
2013-01-07 05:26:00,31.2,28.1,30.29,WSW,247,0.0,0.0,88,0.00,,,0.00,0.00,VWS V14.01,2013-01-07 10:26:00,
2013-01-07 05:31:00,31.2,28.1,30.30,WSW,247,0.0,0.0,88,0.00,,,0.00,0.00,VWS V14.01,2013-01-07 10:31:00,
2013-01-07 05:36:00,31.2,28.1,30.30,SSW,213,1.0,2.0,88,0.00,,,0.00,0.00,VWS V14.01,2013-01-07 10:36:00,
2013-01-07 05:41:00,31.2,28.1,30.30,SSW,213,0.0,0.0,88,0.00,,,0.00,0.00,VWS V14.01,2013-01-07 10:41:00,
2013-01-07 05:46:00,31.2,28.1,30.31,SSW,212,0.0,2.0,88,0.00,,,0.00,0.00,VWS V14.01,2013-01-07 10:46:00,
2013-01-07 05:51:00,31.2,28.1,30.31,SSW,212,0.0,0.0,88,0.00,,,0.00,0.00,VWS V14.01,2013-01-07 10:51:00,
2013-01-07 05:56:00,31.0,27.9,30.31,SSW,205,0.0,1.0,88,0.00,,,0.00,0.00,VWS V14.01,2013-01-07 10:56:00,
2013-01-07 06:01:00,31.0,27.9,30.31,SSW,212,0.0,0.0,88,0.00,,,0.00,0.00,VWS V14.01,2013-01-07 11:01:00,
2013-01-07 06:06:00,31.0,27.9,30.31,SSW,212,1.0,1.0,88,0.00,,,0.00,0.00,VWS V14.01,2013-01-07 11:06:00,
2013-01-07 06:11:00,31.0,27.9,30.31,SSW,210,0.0,0.0,88,0.00,,,0.00,0.00,VWS V14.01,2013-01-07 11:11:00,
2013-01-07 06:16:00,31.0,27.9,30.32,SSW,210,0.0,1.0,88,0.00,,,0.00,0.00,VWS V14.01,2013-01-07 11:16:00,
2013-01-07 06:21:00,31.0,27.9,30.32,SSW,210,0.0,0.0,88,0.00,,,0.00,0.00,VWS V14.01,2013-01-07 11:21:00,
2013-01-07 06:26:00,31.0,27.9,30.32,SSW,210,0.0,0.0,88,0.00,,,0.00,0.00,VWS V14.01,2013-01-07 11:26:00,
2013-01-07 06:31:00,31.0,27.9,30.32,SSW,210,0.0,0.0,88,0.00,,,0.00,0.00,VWS V14.01,2013-01-07 11:31:00,
2013-01-07 06:36:00,30.9,27.8,30.32,SSW,210,0.0,2.0,88,0.00,,,0.00,0.00,VWS V14.01,2013-01-07 11:36:00,
2013-01-07 06:41:00,30.9,27.8,30.32,SSW,210,0.0,1.0,88,0.00,,,0.00,0.00,VWS V14.01,2013-01-07 11:41:00,
2013-01-07 06:46:00,30.9,27.5,30.33,SSW,210,0.0,1.0,87,0.00,,,0.00,0.00,VWS V14.01,2013-01-07 11:46:00,
2013-01-07 06:51:00,30.7,27.3,30.33,SSW,210,0.0,0.0,87,0.00,,,0.00,0.00,VWS V14.01,2013-01-07 11:51:00,
2013-01-07 06:56:00,30.7,27.3,30.33,SSW,210,0.0,0.0,87,0.00,,,0.00,0.00,VWS V14.01,2013-01-07 11:56:00,
2013-01-07 07:01:00,30.7,27.3,30.33,SSW,210,0.0,1.0,87,0.00,,,0.00,0.00,VWS V14.01,2013-01-07 12:01:00,
2013-01-07 07:06:00,30.7,27.3,30.33,SSW,212,0.0,3.0,87,0.00,,,0.00,0.00,VWS V14.01,2013-01-07 12:06:00,
2013-01-07 07:11:00,30.7,27.3,30.33,SSW,205,0.0,0.0,87,0.00,,,0.00,0.00,VWS V14.01,2013-01-07 12:11:00,
2013-01-07 07:16:00,30.6,27.2,30.34,SSW,212,0.0,0.0,87,0.00,,,0.00,0.00,VWS V14.01,2013-01-07 12:16:00,
2013-01-07 07:21:00,30.6,27.2,30.34,SSW,212,0.0,0.0,87,0.00,,,0.00,0.00,VWS V14.01,2013-01-07 12:21:00,
2013-01-07 07:26:00,30.6,27.2,30.34,SSW,208,1.0,2.0,87,0.00,,,0.00,0.00,VWS V14.01,2013-01-07 12:26:00,
2013-01-07 07:31:00,30.6,27.2,30.34,SSW,208,0.0,0.0,87,0.00,,,0.00,0.00,VWS V14.01,2013-01-07 12:31:00,
2013-01-07 07:36:00,30.6,26.9,30.34,SSW,208,0.0,2.0,86,0.00,,,0.00,0.00,VWS V14.01,2013-01-07 12:36:00,
2013-01-07 07:41:00,30.4,26.7,30.34,SSW,208,0.0,0.0,86,0.00,,,0.00,0.00,VWS V14.01,2013-01-07 12:41:00,
2013-01-07 07:46:00,30.4,26.7,30.35,SSW,208,0.0,1.0,86,0.00,,,0.00,0.00,VWS V14.01,2013-01-07 12:46:00,
2013-01-07 07:51:00,30.4,26.7,30.35,SSW,208,1.0,1.0,86,0.00,,,0.00,0.00,VWS V14.01,2013-01-07 12:51:00,
2013-01-07 07:56:00,30.4,26.7,30.35,SSW,208,0.0,1.0,86,0.00,,,0.00,0.00,VWS V14.01,2013-01-07 12:56:00,
2013-01-07 08:01:00,30.4,26.7,30.35,SSW,208,1.0,1.0,86,0.00,,,0.00,0.00,VWS V14.01,2013-01-07 13:01:00,
2013-01-07 08:06:00,30.4,26.7,30.35,SSW,206,0.0,2.0,86,0.00,,,0.00,0.00,VWS V14.01,2013-01-07 13:06:00,
2013-01-07 08:11:00,30.3,26.6,30.35,SSW,200,1.0,1.0,86,0.00,,,0.00,5.00,VWS V14.01,2013-01-07 13:11:00,
2013-01-07 08:16:00,30.3,26.6,30.36,SW,222,1.0,3.0,86,0.00,,,0.00,7.00,VWS V14.01,2013-01-07 13:16:00,
2013-01-07 08:21:00,30.3,26.6,30.36,SW,223,1.0,1.0,86,0.00,,,0.00,9.00,VWS V14.01,2013-01-07 13:21:00,
2013-01-07 08:26:00,30.4,26.4,30.36,SSW,210,0.0,3.0,85,0.00,,,0.00,16.00,VWS V14.01,2013-01-07 13:26:00,
2013-01-07 08:31:00,30.4,26.4,30.37,SSW,212,0.0,0.0,85,0.00,,,0.00,18.00,VWS V14.01,2013-01-07 13:31:00,
2013-01-07 08:36:00,30.4,26.4,30.37,SSW,212,0.0,1.0,85,0.00,,,0.00,19.00,VWS V14.01,2013-01-07 13:36:00,
2013-01-07 08:41:00,30.4,26.4,30.37,SSW,210,0.0,0.0,85,0.00,,,0.00,25.00,VWS V14.01,2013-01-07 13:41:00,
2013-01-07 08:46:00,30.6,26.6,30.37,SSW,210,0.0,1.0,85,0.00,,,0.00,32.00,VWS V14.01,2013-01-07 13:46:00,
2013-01-07 08:51:00,30.6,26.6,30.37,SSW,210,1.0,1.0,85,0.00,,,0.00,32.00,VWS V14.01,2013-01-07 13:51:00,
2013-01-07 08:56:00,30.6,26.6,30.37,SSW,212,0.0,2.0,85,0.00,,,0.00,37.00,VWS V14.01,2013-01-07 13:56:00,
2013-01-07 09:01:00,30.7,26.7,30.38,SW,220,0.0,0.0,85,0.00,,,0.00,40.00,VWS V14.01,2013-01-07 14:01:00,
2013-01-07 09:06:00,30.7,26.7,30.38,SW,223,0.0,2.0,85,0.00,,,0.00,46.00,VWS V14.01,2013-01-07 14:06:00,
2013-01-07 09:11:00,30.9,26.6,30.38,SSW,206,0.0,0.0,84,0.00,,,0.00,51.00,VWS V14.01,2013-01-07 14:11:00,
2013-01-07 09:16:00,30.9,26.6,30.38,SSW,205,0.0,2.0,84,0.00,,,0.00,55.00,VWS V14.01,2013-01-07 14:16:00,
2013-01-07 09:21:00,31.0,26.7,30.38,SSW,205,0.0,1.0,84,0.00,,,0.00,83.00,VWS V14.01,2013-01-07 14:21:00,
2013-01-07 09:26:00,31.2,26.9,30.38,SSW,205,0.0,1.0,84,0.00,,,0.00,81.00,VWS V14.01,2013-01-07 14:26:00,
2013-01-07 09:31:00,31.3,26.8,30.38,SSW,212,0.0,0.0,83,0.00,,,0.00,81.00,VWS V14.01,2013-01-07 14:31:00,
2013-01-07 09:36:00,31.5,26.9,30.38,SSW,212,0.0,1.0,83,0.00,,,0.00,97.00,VWS V14.01,2013-01-07 14:36:00,
2013-01-07 09:41:00,31.6,27.0,30.38,SSW,212,0.0,1.0,83,0.00,,,0.00,83.00,VWS V14.01,2013-01-07 14:41:00,
2013-01-07 09:46:00,31.6,26.8,30.39,SSW,213,1.0,2.0,82,0.00,,,0.00,49.00,VWS V14.01,2013-01-07 14:46:00,
2013-01-07 09:51:00,31.6,26.8,30.39,SSW,213,0.0,0.0,82,0.00,,,0.00,62.00,VWS V14.01,2013-01-07 14:51:00,
2013-01-07 09:56:00,31.6,26.5,30.39,SSW,210,0.0,2.0,81,0.00,,,0.00,72.00,VWS V14.01,2013-01-07 14:56:00,
2013-01-07 10:01:00,31.6,26.5,30.39,SSW,210,0.0,0.0,81,0.00,,,0.00,63.00,VWS V14.01,2013-01-07 15:01:00,
2013-01-07 10:06:00,31.6,26.5,30.39,SW,223,2.0,3.0,81,0.00,,,0.00,76.00,VWS V14.01,2013-01-07 15:06:00,
2013-01-07 10:11:00,31.8,26.6,30.39,SW,232,3.0,3.0,81,0.00,,,0.00,91.00,VWS V14.01,2013-01-07 15:11:00,
2013-01-07 10:16:00,32.1,26.3,30.40,SW,219,0.0,6.0,79,0.00,,,0.00,130.00,VWS V14.01,2013-01-07 15:16:00,
2013-01-07 10:21:00,32.4,26.6,30.40,SSW,205,1.0,1.0,79,0.00,,,0.00,135.00,VWS V14.01,2013-01-07 15:21:00,
2013-01-07 10:26:00,32.7,26.6,30.40,SSW,198,0.0,2.0,78,0.00,,,0.00,134.00,VWS V14.01,2013-01-07 15:26:00,
2013-01-07 10:31:00,32.8,26.4,30.40,SW,227,0.0,0.0,77,0.00,,,0.00,132.00,VWS V14.01,2013-01-07 15:31:00,
2013-01-07 10:36:00,33.1,26.7,30.40,SW,224,2.0,3.0,77,0.00,,,0.00,139.00,VWS V14.01,2013-01-07 15:36:00,
2013-01-07 10:41:00,33.2,26.8,30.40,South,174,1.0,2.0,77,0.00,,,0.00,137.00,VWS V14.01,2013-01-07 15:41:00,
2013-01-07 10:46:00,33.4,26.7,30.40,SW,217,0.0,2.0,76,0.00,,,0.00,151.00,VWS V14.01,2013-01-07 15:46:00,
2013-01-07 10:51:00,33.5,26.4,30.40,SW,217,0.0,1.0,75,0.00,,,0.00,146.00,VWS V14.01,2013-01-07 15:51:00,
2013-01-07 10:56:00,33.7,26.6,30.40,WSW,257,2.0,4.0,75,0.00,,,0.00,139.00,VWS V14.01,2013-01-07 15:56:00,
2013-01-07 11:01:00,33.8,26.7,30.40,WSW,253,0.0,0.0,75,0.00,,,0.00,146.00,VWS V14.01,2013-01-07 16:01:00,
2013-01-07 11:06:00,34.0,26.6,30.40,SSW,205,1.0,2.0,74,0.00,,,0.00,146.00,VWS V14.01,2013-01-07 16:06:00,
2013-01-07 11:11:00,34.1,26.4,30.40,SSE,157,0.0,1.0,73,0.00,,,0.00,116.00,VWS V14.01,2013-01-07 16:11:00,
2013-01-07 11:16:00,34.1,26.0,30.39,SW,220,1.0,4.0,72,0.00,,,0.00,69.00,VWS V14.01,2013-01-07 16:16:00,
2013-01-07 11:21:00,34.1,26.0,30.39,WSW,251,3.0,4.0,72,0.00,,,0.00,62.00,VWS V14.01,2013-01-07 16:21:00,
2013-01-07 11:26:00,34.3,26.6,30.39,WSW,254,0.0,4.0,73,0.00,,,0.00,58.00,VWS V14.01,2013-01-07 16:26:00,
2013-01-07 11:31:00,34.6,26.9,30.38,South,191,1.0,2.0,73,0.00,,,0.00,56.00,VWS V14.01,2013-01-07 16:31:00,
2013-01-07 11:36:00,34.7,25.9,30.38,SSW,203,0.0,6.0,70,0.00,,,0.00,56.00,VWS V14.01,2013-01-07 16:36:00,
2013-01-07 11:41:00,34.9,26.5,30.38,SSW,213,1.0,3.0,71,0.00,,,0.00,51.00,VWS V14.01,2013-01-07 16:41:00,
2013-01-07 11:46:00,34.7,25.6,30.37,SW,226,3.0,7.0,69,0.00,,,0.00,65.00,VWS V14.01,2013-01-07 16:46:00,
2013-01-07 11:51:00,34.6,25.5,30.37,SW,216,2.0,2.0,69,0.00,,,0.00,65.00,VWS V14.01,2013-01-07 16:51:00,
2013-01-07 11:56:00,34.6,25.5,30.37,SW,227,3.0,7.0,69,0.00,,,0.00,76.00,VWS V14.01,2013-01-07 16:56:00,
2013-01-07 12:01:00,34.6,25.1,30.36,SSW,198,2.0,7.0,68,0.00,,OVC032,0.00,95.00,VWS V14.01,2013-01-07 17:01:00,
2013-01-07 12:06:00,34.7,25.2,30.36,SW,222,2.0,7.0,68,0.00,,OVC032,0.00,111.00,VWS V14.01,2013-01-07 17:06:00,
2013-01-07 12:11:00,34.9,25.4,30.36,SSW,213,1.0,3.0,68,0.00,,OVC032,0.00,79.00,VWS V14.01,2013-01-07 17:11:00,
2013-01-07 12:16:00,35.0,24.8,30.35,SW,220,6.0,6.0,66,0.00,,OVC032,0.00,93.00,VWS V14.01,2013-01-07 17:16:00,
2013-01-07 12:21:00,35.2,24.6,30.35,West,272,1.0,3.0,65,0.00,,OVC032,0.00,63.00,VWS V14.01,2013-01-07 17:21:00,
2013-01-07 12:26:00,35.2,24.6,30.35,SSW,208,3.0,6.0,65,0.00,,OVC032,0.00,86.00,VWS V14.01,2013-01-07 17:26:00,
2013-01-07 12:31:00,35.2,24.6,30.34,SW,217,5.0,5.0,65,0.00,,OVC032,0.00,123.00,VWS V14.01,2013-01-07 17:31:00,
2013-01-07 12:36:00,35.2,25.0,30.34,SW,220,4.0,7.0,66,0.00,,OVC032,0.00,125.00,VWS V14.01,2013-01-07 17:36:00,
2013-01-07 12:41:00,35.3,24.7,30.34,SW,230,4.0,6.0,65,0.00,,OVC032,0.00,86.00,VWS V14.01,2013-01-07 17:41:00,
2013-01-07 12:46:00,35.3,24.7,30.34,SSW,209,1.0,8.0,65,0.00,,OVC032,0.00,69.00,VWS V14.01,2013-01-07 17:46:00,
2013-01-07 12:51:00,35.3,24.7,30.34,SSW,213,2.0,7.0,65,0.00,,OVC032,0.00,100.00,VWS V14.01,2013-01-07 17:51:00,
2013-01-07 12:56:00,35.2,24.3,30.34,SW,223,2.0,7.0,64,0.00,,OVC032,0.00,74.00,VWS V14.01,2013-01-07 17:56:00,
2013-01-07 13:01:00,35.2,24.6,30.33,SW,234,5.0,5.0,65,0.00,,OVC032,0.00,65.00,VWS V14.01,2013-01-07 18:01:00,
2013-01-07 13:06:00,35.2,24.6,30.33,SSE,162,2.0,7.0,65,0.00,,BKN150,0.00,56.00,VWS V14.01,2013-01-07 18:06:00,
2013-01-07 13:11:00,35.2,24.3,30.33,SSW,209,1.0,2.0,64,0.00,,BKN150,0.00,53.00,VWS V14.01,2013-01-07 18:11:00,
2013-01-07 13:16:00,35.3,24.4,30.32,SSW,213,0.0,7.0,64,0.00,,BKN150,0.00,53.00,VWS V14.01,2013-01-07 18:16:00,
2013-01-07 13:21:00,35.6,24.6,30.32,WSW,237,4.0,6.0,64,0.00,,BKN150,0.00,51.00,VWS V14.01,2013-01-07 18:21:00,
2013-01-07 13:26:00,35.8,24.5,30.32,SSW,209,2.0,6.0,63,0.00,,BKN150,0.00,49.00,VWS V14.01,2013-01-07 18:26:00,
2013-01-07 13:31:00,36.0,24.6,30.32,SSE,162,2.0,6.0,63,0.00,,BKN150,0.00,49.00,VWS V14.01,2013-01-07 18:31:00,
2013-01-07 13:36:00,36.2,24.8,30.32,SW,229,0.0,6.0,63,0.00,,BKN150,0.00,48.00,VWS V14.01,2013-01-07 18:36:00,
2013-01-07 13:41:00,36.3,24.5,30.32,SSW,209,3.0,4.0,62,0.00,,BKN150,0.00,48.00,VWS V14.01,2013-01-07 18:41:00,
2013-01-07 13:46:00,36.3,24.1,30.32,South,174,0.0,8.0,61,0.00,,BKN150,0.00,46.00,VWS V14.01,2013-01-07 18:46:00,
2013-01-07 13:51:00,36.3,24.9,30.32,SSE,164,0.0,1.0,63,0.00,,BKN150,0.00,46.00,VWS V14.01,2013-01-07 18:51:00,
2013-01-07 13:56:00,36.3,24.5,30.32,SW,226,1.0,12.0,62,0.00,,BKN150,0.00,46.00,VWS V14.01,2013-01-07 18:56:00,
2013-01-07 14:01:00,36.2,24.5,30.31,South,185,2.0,3.0,62,0.00,,BKN150,0.00,46.00,VWS V14.01,2013-01-07 19:01:00,
2013-01-07 14:06:00,36.2,24.8,30.31,SW,215,2.0,3.0,63,0.00,,SCT029,0.00,46.00,VWS V14.01,2013-01-07 19:06:00,
2013-01-07 14:11:00,36.2,25.2,30.31,South,169,0.0,2.0,64,0.00,,SCT029,0.00,46.00,VWS V14.01,2013-01-07 19:11:00,
2013-01-07 14:16:00,36.2,25.2,30.30,SSW,196,0.0,3.0,64,0.00,,SCT029,0.00,46.00,VWS V14.01,2013-01-07 19:16:00,
2013-01-07 14:21:00,36.2,25.2,30.30,SSW,206,2.0,5.0,64,0.00,,SCT029,0.00,42.00,VWS V14.01,2013-01-07 19:21:00,
2013-01-07 14:26:00,36.2,24.5,30.30,South,172,0.0,5.0,62,0.00,,SCT029,0.00,40.00,VWS V14.01,2013-01-07 19:26:00,
2013-01-07 14:31:00,36.3,25.3,30.30,South,191,0.0,2.0,64,0.00,,SCT029,0.00,42.00,VWS V14.01,2013-01-07 19:31:00,
2013-01-07 14:36:00,36.3,24.9,30.30,WSW,237,2.0,3.0,63,0.00,,SCT029,0.00,40.00,VWS V14.01,2013-01-07 19:36:00,
2013-01-07 14:41:00,36.3,24.9,30.30,SE,140,3.0,3.0,63,0.00,,SCT029,0.00,39.00,VWS V14.01,2013-01-07 19:41:00,
2013-01-07 14:46:00,36.3,24.5,30.29,South,175,0.0,6.0,62,0.00,,SCT029,0.00,39.00,VWS V14.01,2013-01-07 19:46:00,
2013-01-07 14:51:00,36.5,24.7,30.29,SSW,192,2.0,2.0,62,0.00,,SCT029,0.00,39.00,VWS V14.01,2013-01-07 19:51:00,
2013-01-07 14:56:00,36.5,25.1,30.29,SSE,165,1.0,2.0,63,0.00,,SCT029,0.00,37.00,VWS V14.01,2013-01-07 19:56:00,
2013-01-07 15:01:00,36.6,24.8,30.29,South,178,0.0,3.0,62,0.00,,SCT029,0.00,37.00,VWS V14.01,2013-01-07 20:01:00,
2013-01-07 15:06:00,36.8,25.0,30.29,SSW,206,6.0,6.0,62,0.00,,SCT200,0.00,35.00,VWS V14.01,2013-01-07 20:06:00,
2013-01-07 15:10:00,36.9,25.1,30.29,SW,220,0.0,0.0,62,0.00,,SCT200,0.00,33.00,VWS V14.01,2013-01-07 20:10:00,
2013-01-07 15:15:00,36.9,25.1,30.28,South,174,0.0,2.0,62,0.00,,SCT200,0.00,33.00,VWS V14.01,2013-01-07 20:15:00,
2013-01-07 15:19:00,36.9,25.1,30.28,South,185,0.0,2.0,62,0.00,,SCT200,0.00,33.00,VWS V14.01,2013-01-07 20:19:00,
2013-01-07 15:24:00,36.9,24.7,30.28,SW,234,0.0,3.0,61,0.00,,SCT200,0.00,32.00,VWS V14.01,2013-01-07 20:24:00,
2013-01-07 15:29:00,36.8,25.0,30.28,SSW,212,2.0,4.0,62,0.00,,SCT200,0.00,32.00,VWS V14.01,2013-01-07 20:29:00,
2013-01-07 15:34:00,36.8,25.0,30.28,SE,124,0.0,2.0,62,0.00,,SCT200,0.00,32.00,VWS V14.01,2013-01-07 20:34:00,
2013-01-07 15:39:00,36.8,25.0,30.28,South,188,0.0,2.0,62,0.00,,SCT200,0.00,32.00,VWS V14.01,2013-01-07 20:39:00,
2013-01-07 15:44:00,36.8,25.0,30.28,SSW,198,0.0,2.0,62,0.00,,SCT200,0.00,30.00,VWS V14.01,2013-01-07 20:44:00,
2013-01-07 15:49:00,36.6,24.8,30.28,SSE,152,0.0,2.0,62,0.00,,SCT200,0.00,28.00,VWS V14.01,2013-01-07 20:49:00,
2013-01-07 15:54:00,36.5,25.1,30.28,SSE,160,0.0,0.0,63,0.00,,SCT200,0.00,28.00,VWS V14.01,2013-01-07 20:54:00,
2013-01-07 15:59:00,36.3,24.5,30.28,SW,222,6.0,6.0,62,0.00,,SCT200,0.00,26.00,VWS V14.01,2013-01-07 20:59:00,
2013-01-07 16:04:00,36.0,25.0,30.28,ESE,117,0.0,1.0,64,0.00,,SCT200,0.00,26.00,VWS V14.01,2013-01-07 21:04:00,
2013-01-07 16:09:00,35.8,24.8,30.28,SW,222,1.0,3.0,64,0.00,,SCT200,0.00,25.00,VWS V14.01,2013-01-07 21:09:00,
2013-01-07 16:14:00,35.6,24.6,30.28,SW,222,2.0,6.0,64,0.00,,SCT200,0.00,23.00,VWS V14.01,2013-01-07 21:14:00,
2013-01-07 16:19:00,35.3,24.4,30.28,SW,229,2.0,6.0,64,0.00,,SCT200,0.00,23.00,VWS V14.01,2013-01-07 21:19:00,
2013-01-07 16:24:00,35.2,24.3,30.28,SW,234,1.0,3.0,64,0.00,,SCT200,0.00,21.00,VWS V14.01,2013-01-07 21:24:00,
2013-01-07 16:29:00,35.0,24.1,30.28,SSW,212,2.0,6.0,64,0.00,,SCT200,0.00,25.00,VWS V14.01,2013-01-07 21:29:00,
2013-01-07 16:34:00,34.7,24.1,30.28,SSW,200,0.0,4.0,65,0.00,,SCT200,0.00,18.00,VWS V14.01,2013-01-07 21:34:00,
2013-01-07 16:39:00,34.6,24.4,30.28,SSW,213,1.0,4.0,66,0.00,,SCT200,0.00,18.00,VWS V14.01,2013-01-07 21:39:00,
2013-01-07 16:44:00,34.3,24.1,30.28,SSW,210,0.0,0.0,66,0.00,,SCT200,0.00,14.00,VWS V14.01,2013-01-07 21:44:00,
2013-01-07 16:49:00,34.1,24.3,30.27,South,169,0.0,0.0,67,0.00,,SCT200,0.00,12.00,VWS V14.01,2013-01-07 21:49:00,
2013-01-07 16:54:00,33.8,24.4,30.27,South,189,0.0,3.0,68,0.00,,SCT200,0.00,11.00,VWS V14.01,2013-01-07 21:54:00,
2013-01-07 16:59:00,33.7,24.3,30.27,SSE,152,0.0,3.0,68,0.00,,SCT200,0.00,7.00,VWS V14.01,2013-01-07 21:59:00,
2013-01-07 17:04:00,33.4,24.0,30.26,South,186,1.0,1.0,68,0.00,,CLR,0.00,5.00,VWS V14.01,2013-01-07 22:04:00,
2013-01-07 17:09:00,33.2,23.8,30.26,SSE,155,0.0,4.0,68,0.00,,CLR,0.00,0.00,VWS V14.01,2013-01-07 22:09:00,
2013-01-07 17:14:00,33.1,23.7,30.26,SW,216,0.0,2.0,68,0.00,,CLR,0.00,0.00,VWS V14.01,2013-01-07 22:14:00,
2013-01-07 17:19:00,32.8,23.8,30.26,South,171,0.0,2.0,69,0.00,,CLR,0.00,0.00,VWS V14.01,2013-01-07 22:19:00,
2013-01-07 17:24:00,32.7,23.7,30.26,SSE,152,0.0,0.0,69,0.00,,CLR,0.00,0.00,VWS V14.01,2013-01-07 22:24:00,
2013-01-07 17:29:00,32.4,23.7,30.26,SSE,152,0.0,0.0,70,0.00,,CLR,0.00,0.00,VWS V14.01,2013-01-07 22:29:00,
2013-01-07 17:33:00,32.2,23.5,30.27,SSE,168,0.0,1.0,70,0.00,,CLR,0.00,0.00,VWS V14.01,2013-01-07 22:33:00,
2013-01-07 17:38:00,31.9,23.2,30.27,South,185,0.0,1.0,70,0.00,,CLR,0.00,0.00,VWS V14.01,2013-01-07 22:38:00,
2013-01-07 17:43:00,31.8,23.5,30.27,SSE,168,0.0,2.0,71,0.00,,CLR,0.00,0.00,VWS V14.01,2013-01-07 22:43:00,
2013-01-07 17:48:00,31.8,23.5,30.26,SSE,167,0.0,2.0,71,0.00,,CLR,0.00,0.00,VWS V14.01,2013-01-07 22:48:00,
2013-01-07 17:53:00,31.6,23.3,30.26,SSW,192,0.0,1.0,71,0.00,,CLR,0.00,0.00,VWS V14.01,2013-01-07 22:53:00,
2013-01-07 17:58:00,31.5,23.5,30.26,South,174,0.0,1.0,72,0.00,,CLR,0.00,0.00,VWS V14.01,2013-01-07 22:58:00,
2013-01-07 18:03:00,31.3,23.3,30.26,South,174,0.0,0.0,72,0.00,,FEW250,0.00,0.00,VWS V14.01,2013-01-07 23:03:00,
2013-01-07 18:08:00,31.2,23.2,30.26,South,171,0.0,0.0,72,0.00,,FEW250,0.00,0.00,VWS V14.01,2013-01-07 23:08:00,
2013-01-07 18:13:00,30.9,23.3,30.26,South,171,0.0,0.0,73,0.00,,FEW250,0.00,0.00,VWS V14.01,2013-01-07 23:13:00,
2013-01-07 18:18:00,30.7,23.1,30.26,SE,126,0.0,1.0,73,0.00,,FEW250,0.00,0.00,VWS V14.01,2013-01-07 23:18:00,
2013-01-07 18:23:00,30.7,23.1,30.26,South,181,0.0,1.0,73,0.00,,FEW250,0.00,0.00,VWS V14.01,2013-01-07 23:23:00,
2013-01-07 18:28:00,30.6,23.0,30.26,SSE,165,0.0,1.0,73,0.00,,FEW250,0.00,0.00,VWS V14.01,2013-01-07 23:28:00,
2013-01-07 18:33:00,30.6,23.3,30.26,SSE,151,1.0,2.0,74,0.00,,FEW250,0.00,0.00,VWS V14.01,2013-01-07 23:33:00,
2013-01-07 18:38:00,30.4,23.1,30.26,SSE,157,0.0,2.0,74,0.00,,FEW250,0.00,0.00,VWS V14.01,2013-01-07 23:38:00,
2013-01-07 18:43:00,30.3,23.0,30.26,SSE,155,0.0,1.0,74,0.00,,FEW250,0.00,0.00,VWS V14.01,2013-01-07 23:43:00,
2013-01-07 18:48:00,30.1,22.8,30.25,SSE,167,0.0,2.0,74,0.00,,FEW250,0.00,0.00,VWS V14.01,2013-01-07 23:48:00,
2013-01-07 18:53:00,30.1,23.1,30.25,SSE,154,0.0,2.0,75,0.00,,FEW250,0.00,0.00,VWS V14.01,2013-01-07 23:53:00,
2013-01-07 18:59:00,30.0,23.0,30.25,South,181,0.0,3.0,75,0.00,,FEW250,0.00,0.00,VWS V14.01,2013-01-07 23:59:00,
2013-01-07 19:03:00,30.0,23.4,30.25,SSW,192,0.0,1.0,76,0.00,,CLR,0.00,0.00,VWS V14.01,2013-01-08 00:03:00,
2013-01-07 19:09:00,29.8,23.2,30.25,SSW,192,0.0,1.0,76,0.00,,CLR,0.00,0.00,VWS V14.01,2013-01-08 00:09:00,
2013-01-07 19:14:00,29.7,23.1,30.25,SSW,208,0.0,1.0,76,0.00,,CLR,0.00,0.00,VWS V14.01,2013-01-08 00:14:00,
2013-01-07 19:18:00,29.7,23.1,30.25,SSE,162,0.0,2.0,76,0.00,,CLR,0.00,0.00,VWS V14.01,2013-01-08 00:18:00,
2013-01-07 19:23:00,29.5,22.9,30.25,SSW,208,0.0,1.0,76,0.00,,CLR,0.00,0.00,VWS V14.01,2013-01-08 00:23:00,
2013-01-07 19:28:00,29.5,23.2,30.25,SSE,157,2.0,2.0,77,0.00,,CLR,0.00,0.00,VWS V14.01,2013-01-08 00:28:00,
2013-01-07 19:33:00,29.4,23.1,30.25,SSE,167,0.0,3.0,77,0.00,,CLR,0.00,0.00,VWS V14.01,2013-01-08 00:33:00,
2013-01-07 19:38:00,29.4,23.1,30.25,South,174,0.0,3.0,77,0.00,,CLR,0.00,0.00,VWS V14.01,2013-01-08 00:38:00,
2013-01-07 19:43:00,29.4,23.1,30.25,South,172,0.0,0.0,77,0.00,,CLR,0.00,0.00,VWS V14.01,2013-01-08 00:43:00,
2013-01-07 19:48:00,29.3,23.0,30.25,SSW,213,0.0,0.0,77,0.00,,CLR,0.00,0.00,VWS V14.01,2013-01-08 00:48:00,
2013-01-07 19:53:00,29.3,23.0,30.25,SSW,210,2.0,2.0,77,0.00,,CLR,0.00,0.00,VWS V14.01,2013-01-08 00:53:00,
2013-01-07 19:58:00,29.3,23.0,30.25,South,189,0.0,3.0,77,0.00,,CLR,0.00,0.00,VWS V14.01,2013-01-08 00:58:00,
2013-01-07 20:03:00,29.3,23.0,30.24,SSW,210,0.0,2.0,77,0.00,,CLR,0.00,0.00,VWS V14.01,2013-01-08 01:03:00,
2013-01-07 20:08:00,29.3,23.0,30.24,SSW,202,3.0,3.0,77,0.00,,CLR,0.00,0.00,VWS V14.01,2013-01-08 01:08:00,
2013-01-07 20:13:00,29.3,23.0,30.24,SSW,205,2.0,3.0,77,0.00,,CLR,0.00,0.00,VWS V14.01,2013-01-08 01:13:00,
2013-01-07 20:18:00,29.3,23.0,30.23,SSE,165,0.0,3.0,77,0.00,,CLR,0.00,0.00,VWS V14.01,2013-01-08 01:18:00,
2013-01-07 20:23:00,29.3,23.0,30.23,SSE,154,0.0,2.0,77,0.00,,CLR,0.00,0.00,VWS V14.01,2013-01-08 01:23:00,
2013-01-07 20:28:00,29.3,23.0,30.23,SSW,200,0.0,2.0,77,0.00,,CLR,0.00,0.00,VWS V14.01,2013-01-08 01:28:00,
2013-01-07 20:33:00,29.3,23.0,30.23,South,176,2.0,2.0,77,0.00,,CLR,0.00,0.00,VWS V14.01,2013-01-08 01:33:00,
2013-01-07 20:38:00,29.3,23.0,30.23,South,189,0.0,3.0,77,0.00,,CLR,0.00,0.00,VWS V14.01,2013-01-08 01:38:00,
2013-01-07 20:43:00,29.3,23.0,30.23,South,176,0.0,1.0,77,0.00,,CLR,0.00,0.00,VWS V14.01,2013-01-08 01:43:00,
2013-01-07 20:48:00,29.3,23.0,30.22,South,189,0.0,3.0,77,0.00,,CLR,0.00,0.00,VWS V14.01,2013-01-08 01:48:00,
2013-01-07 20:53:00,29.4,23.1,30.22,SSW,195,0.0,5.0,77,0.00,,CLR,0.00,0.00,VWS V14.01,2013-01-08 01:53:00,
2013-01-07 20:58:00,29.4,23.1,30.22,South,172,0.0,5.0,77,0.00,,CLR,0.00,0.00,VWS V14.01,2013-01-08 01:58:00,
2013-01-07 21:03:00,29.4,23.1,30.21,SSE,148,0.0,3.0,77,0.00,,CLR,0.00,0.00,VWS V14.01,2013-01-08 02:03:00,
2013-01-07 21:08:00,29.4,23.1,30.21,South,185,0.0,3.0,77,0.00,,CLR,0.00,0.00,VWS V14.01,2013-01-08 02:08:00,
2013-01-07 21:13:00,29.5,23.2,30.21,SSW,198,0.0,3.0,77,0.00,,CLR,0.00,0.00,VWS V14.01,2013-01-08 02:13:00,
2013-01-07 21:18:00,29.5,23.2,30.20,South,184,3.0,5.0,77,0.00,,CLR,0.00,0.00,VWS V14.01,2013-01-08 02:18:00,
2013-01-07 21:23:00,29.4,23.1,30.20,SSW,192,0.0,2.0,77,0.00,,CLR,0.00,0.00,VWS V14.01,2013-01-08 02:23:00,
2013-01-07 21:28:00,29.4,23.1,30.20,South,185,0.0,3.0,77,0.00,,CLR,0.00,0.00,VWS V14.01,2013-01-08 02:28:00,
2013-01-07 21:33:00,29.4,23.1,30.20,SSW,198,0.0,3.0,77,0.00,,CLR,0.00,0.00,VWS V14.01,2013-01-08 02:33:00,
2013-01-07 21:38:00,29.4,23.1,30.20,SSW,198,0.0,3.0,77,0.00,,CLR,0.00,0.00,VWS V14.01,2013-01-08 02:38:00,
2013-01-07 21:43:00,29.4,23.4,30.20,SSE,157,2.0,5.0,78,0.00,,CLR,0.00,0.00,VWS V14.01,2013-01-08 02:43:00,
2013-01-07 21:48:00,29.4,23.4,30.19,South,175,3.0,5.0,78,0.00,,CLR,0.00,0.00,VWS V14.01,2013-01-08 02:48:00,
2013-01-07 21:53:00,29.4,23.4,30.19,SSW,212,0.0,1.0,78,0.00,,CLR,0.00,0.00,VWS V14.01,2013-01-08 02:53:00,
2013-01-07 21:58:00,29.4,23.4,30.19,SSE,160,0.0,6.0,78,0.00,,CLR,0.00,0.00,VWS V14.01,2013-01-08 02:58:00,
2013-01-07 22:03:00,29.4,23.4,30.19,SW,224,0.0,5.0,78,0.00,,CLR,0.00,0.00,VWS V14.01,2013-01-08 03:03:00,
2013-01-07 22:08:00,29.4,23.4,30.19,South,176,0.0,5.0,78,0.00,,CLR,0.00,0.00,VWS V14.01,2013-01-08 03:08:00,
2013-01-07 22:13:00,29.4,23.4,30.19,SSW,193,0.0,3.0,78,0.00,,CLR,0.00,0.00,VWS V14.01,2013-01-08 03:13:00,
2013-01-07 22:18:00,29.4,23.4,30.18,South,171,0.0,3.0,78,0.00,,CLR,0.00,0.00,VWS V14.01,2013-01-08 03:18:00,
2013-01-07 22:23:00,29.4,23.4,30.18,South,176,0.0,0.0,78,0.00,,CLR,0.00,0.00,VWS V14.01,2013-01-08 03:23:00,
2013-01-07 22:28:00,29.4,23.7,30.18,South,176,0.0,6.0,79,0.00,,CLR,0.00,0.00,VWS V14.01,2013-01-08 03:28:00,
2013-01-07 22:33:00,29.4,23.7,30.18,SSW,199,0.0,2.0,79,0.00,,CLR,0.00,0.00,VWS V14.01,2013-01-08 03:33:00,
2013-01-07 22:38:00,29.4,23.7,30.18,SW,223,1.0,2.0,79,0.00,,CLR,0.00,0.00,VWS V14.01,2013-01-08 03:38:00,
2013-01-07 22:43:00,29.5,23.8,30.18,SSE,165,0.0,0.0,79,0.00,,CLR,0.00,0.00,VWS V14.01,2013-01-08 03:43:00,
2013-01-07 22:48:00,29.5,23.5,30.18,SW,215,1.0,2.0,78,0.00,,CLR,0.00,0.00,VWS V14.01,2013-01-08 03:48:00,
2013-01-07 22:53:00,29.5,23.8,30.18,South,182,0.0,2.0,79,0.00,,CLR,0.00,0.00,VWS V14.01,2013-01-08 03:53:00,
2013-01-07 22:58:00,29.5,23.5,30.18,SE,141,0.0,2.0,78,0.00,,CLR,0.00,0.00,VWS V14.01,2013-01-08 03:58:00,
2013-01-07 23:03:00,29.5,23.5,30.18,SSE,165,0.0,2.0,78,0.00,,FEW250,0.00,0.00,VWS V14.01,2013-01-08 04:03:00,
2013-01-07 23:08:00,29.5,23.8,30.18,South,181,0.0,3.0,79,0.00,,FEW250,0.00,0.00,VWS V14.01,2013-01-08 04:08:00,
2013-01-07 23:13:00,29.7,23.7,30.18,SE,134,2.0,3.0,78,0.00,,FEW250,0.00,0.00,VWS V14.01,2013-01-08 04:13:00,
2013-01-07 23:18:00,29.5,23.5,30.18,SSE,160,0.0,3.0,78,0.00,,FEW250,0.00,0.00,VWS V14.01,2013-01-08 04:18:00,
2013-01-07 23:23:00,29.5,23.8,30.18,South,181,0.0,0.0,79,0.00,,FEW250,0.00,0.00,VWS V14.01,2013-01-08 04:23:00,
2013-01-07 23:28:00,29.4,23.4,30.18,SSE,158,0.0,0.0,78,0.00,,FEW250,0.00,0.00,VWS V14.01,2013-01-08 04:28:00,
2013-01-07 23:33:00,29.4,23.7,30.18,South,176,0.0,0.0,79,0.00,,FEW250,0.00,0.00,VWS V14.01,2013-01-08 04:33:00,
2013-01-07 23:38:00,29.3,23.6,30.18,South,181,0.0,0.0,79,0.00,,FEW250,0.00,0.00,VWS V14.01,2013-01-08 04:38:00,
2013-01-07 23:43:00,29.3,23.6,30.18,South,176,0.0,0.0,79,0.00,,FEW250,0.00,0.00,VWS V14.01,2013-01-08 04:43:00,
2013-01-07 23:48:00,29.1,23.4,30.18,SSW,199,0.0,1.0,79,0.00,,FEW250,0.00,0.00,VWS V14.01,2013-01-08 04:48:00,
2013-01-07 23:53:00,29.1,23.4,30.18,South,171,0.0,0.0,79,0.00,,FEW250,0.00,0.00,VWS V14.01,2013-01-08 04:53:00,
2013-01-07 23:58:00,29.0,23.3,30.18,SSE,157,0.0,0.0,79,0.00,,FEW250,0.00,0.00,VWS V14.01,2013-01-08 04:58:00,